Weather History for KGYI - September, 2013

Change the Weather History Date:

Thursday, September 12, 2013

  Actual Average (KDFW) Record (KDFW)
Temperature  
Mean Temperature 85 °F 79 °F  
Max Temperature 98 °F 90 °F 103 °F (2011)
Min Temperature 73 °F 69 °F 50 °F (1902)
Degree Days  
Heating Degree Days 0 0  
Month to date heating degree days 0  
Since 1 July heating degree days 0  
Cooling Degree Days 20 14  
Month to date cooling degree days 194  
Year to date cooling degree days 2376  
Growing Degree Days 35 (Base 50)    
Moisture  
Dew Point 64 °F    
Average Humidity 53    
Maximum Humidity 78    
Minimum Humidity 26    
Precipitation  
Precipitation 0.00 in 0.09 in 2.66 in (2009)
Month to date precipitation 1.13  
Year to date precipitation 25.24  
Sea Level Pressure  
Sea Level Pressure 30.04 in    
Wind  
Wind Speed 5 mph (East)    
Max Wind Speed 16 mph    
Max Gust Speed 25 mph    
Visibility 10 miles    
Events      
T = Trace of Precipitation, MM = Missing Value Source: NWS Daily Summary

Daily Weather History Graph

Daily Weather History Graph

Search for Another Location

Airport or City:

Trip Planner

Search our weather history database for the weather conditions in past years. The results will help you decide how hot, cold, wet, or windy it might be!

Date:

Astronomy

Sep. 12, 2013 Rise Set
Actual Time 7:08 AM CDT 7:36 PM CDT
Civil Twilight 6:43 AM CDT 8:01 PM CDT
Nautical Twilight 6:13 AM CDT 8:31 PM CDT
Astronomical Twilight 5:43 AM CDT 9:01 PM CDT
Moon 2:18 PM CDT (9/12) No Moon Set
Length of Visible Light 13h 18m
Length of Day
12h 28m
Waxing Crescent, 50% of the Moon is Illuminated
Sep 12
Waxing Crescent
Sep 12
First Quarter
Sep 19
Full
Sep 26
Last Quarter
Oct 4
New

Hourly Weather History & Observations

Time (CDT) Temp. Heat Index Dew Point Humidity Pressure Visibility Wind Dir Wind Speed Gust Speed Precip Events Conditions
12:15 AM 82.4 °F 83.7 °F 63.7 °F 53% 30.07 in 10.0 mi SSE 6.9 mph - N/A   Clear
12:35 AM 82.4 °F 83.7 °F 63.9 °F 53% 30.07 in 10.0 mi SE 9.2 mph - N/A   Clear
12:55 AM 81.7 °F 83.2 °F 64.2 °F 55% 30.07 in 10.0 mi ESE 5.8 mph - N/A   Clear
1:15 AM 79.0 °F - 64.6 °F 61% 30.07 in 10.0 mi East 4.6 mph - N/A   Clear
1:35 AM 78.8 °F - 64.8 °F 62% 30.07 in 10.0 mi East 4.6 mph - N/A   Clear
1:55 AM 78.6 °F - 64.8 °F 62% 30.07 in 10.0 mi East 4.6 mph - N/A   Mostly Cloudy
2:15 AM 78.4 °F - 65.3 °F 64% 30.07 in 10.0 mi East 4.6 mph - N/A   Scattered Clouds
2:35 AM 78.8 °F - 65.3 °F 63% 30.07 in 10.0 mi East 4.6 mph - N/A   Clear
2:55 AM 77.0 °F - 65.1 °F 67% 30.06 in 10.0 mi ESE 3.5 mph - N/A   Clear
3:15 AM 79.7 °F - 65.8 °F 62% 30.06 in 10.0 mi ESE 4.6 mph - N/A   Clear
3:35 AM 76.1 °F - 65.3 °F 69% 30.06 in 10.0 mi Calm Calm - N/A   Clear
3:55 AM 78.4 °F - 66.2 °F 66% 30.06 in 10.0 mi South 3.5 mph - N/A   Clear
4:15 AM 77.0 °F - 66.0 °F 69% 30.06 in 10.0 mi Calm Calm - N/A   Clear
4:35 AM 77.7 °F - 66.0 °F 67% 30.06 in 10.0 mi Calm Calm - N/A   Clear
4:55 AM 75.0 °F - 65.8 °F 73% 30.06 in 10.0 mi Calm Calm - N/A   Clear
5:15 AM 73.4 °F - 65.5 °F 76% 30.06 in 7.0 mi East 3.5 mph - N/A   Clear
5:35 AM 74.5 °F - 65.7 °F 74% 30.06 in 10.0 mi Calm Calm - N/A   Clear
5:55 AM 74.3 °F - 65.8 °F 75% 30.06 in 10.0 mi East 3.5 mph - N/A   Clear
6:15 AM 74.3 °F - 66.0 °F 75% 30.07 in 10.0 mi ESE 4.6 mph - N/A   Clear
6:35 AM 73.4 °F - 65.7 °F 77% 30.07 in 7.0 mi Calm Calm - N/A   Clear
6:55 AM 74.3 °F - 66.2 °F 76% 30.08 in 10.0 mi Calm Calm - N/A   Clear
7:15 AM 75.4 °F - 66.2 °F 73% 30.08 in 10.0 mi Calm Calm - N/A   Clear
7:35 AM 73.9 °F - 66.7 °F 78% 30.08 in 10.0 mi SSE 3.5 mph - N/A   Clear
7:55 AM 76.6 °F - 67.1 °F 72% 30.09 in 10.0 mi South 5.8 mph - N/A   Clear
8:15 AM 77.7 °F - 67.1 °F 70% 30.09 in 7.0 mi SSE 4.6 mph - N/A   Clear
8:35 AM 78.6 °F - 67.3 °F 68% 30.09 in 10.0 mi South 5.8 mph - N/A   Clear
8:55 AM 79.9 °F - 67.5 °F 66% 30.09 in 10.0 mi South 4.6 mph - N/A   Clear
9:15 AM 81.5 °F 83.9 °F 67.1 °F 61% 30.10 in 10.0 mi SSW 4.6 mph - N/A   Clear
9:35 AM 82.6 °F 85.1 °F 67.1 °F 59% 30.10 in 10.0 mi Calm Calm - N/A   Clear
9:55 AM 84.0 °F 86.5 °F 66.7 °F 56% 30.10 in 10.0 mi Calm Calm - N/A   Clear
10:15 AM 85.6 °F 87.9 °F 66.2 °F 52% 30.10 in 10.0 mi ESE 3.5 mph - N/A   Clear
10:35 AM 87.3 °F 88.9 °F 64.9 °F 47% 30.10 in 10.0 mi Calm Calm - N/A   Clear
10:55 AM 87.8 °F 89.4 °F 64.8 °F 46% 30.10 in 10.0 mi Calm Calm - N/A   Clear
11:15 AM 89.4 °F 90.8 °F 64.4 °F 43% 30.10 in 10.0 mi NE 3.5 mph - N/A   Clear
11:35 AM 90.9 °F 92.0 °F 63.3 °F 40% 30.09 in 10.0 mi West 4.6 mph - N/A   Clear
11:55 AM 91.8 °F 93.0 °F 63.3 °F 39% 30.09 in 10.0 mi SW 4.6 mph - N/A   Clear
12:15 PM 92.7 °F 93.6 °F 63.0 °F 37% 30.08 in 10.0 mi South 4.6 mph - N/A   Clear
12:35 PM 92.3 °F 93.4 °F 63.1 °F 38% 30.08 in 10.0 mi Calm Calm - N/A   Scattered Clouds
12:55 PM 93.9 °F 94.0 °F 61.0 °F 33% 30.07 in 10.0 mi Calm Calm - N/A   Scattered Clouds
1:15 PM 94.1 °F 94.2 °F 60.6 °F 33% 30.06 in 10.0 mi ENE 6.9 mph - N/A   Clear
1:35 PM 94.3 °F 94.1 °F 60.6 °F 32% 30.05 in 10.0 mi ENE 5.8 mph - N/A   Clear
1:55 PM 95.2 °F 95.1 °F 60.3 °F 31% 30.04 in 10.0 mi Calm Calm - N/A   Scattered Clouds
2:15 PM 96.1 °F 96.4 °F 61.2 °F 31% 30.03 in 10.0 mi NNE 4.6 mph - N/A   Scattered Clouds
2:35 PM 93.4 °F 93.2 °F 59.9 °F 33% 30.03 in 10.0 mi ESE 3.5 mph - N/A   Clear
2:55 PM 94.5 °F 94.0 °F 59.9 °F 31% 30.02 in 10.0 mi ESE 3.5 mph - N/A   Clear
3:15 PM 97.2 °F 96.4 °F 57.6 °F 27% 30.00 in 10.0 mi East 10.4 mph - N/A   Clear
3:35 PM 97.7 °F 97.1 °F 58.8 °F 27% 29.99 in 10.0 mi SSE 8.1 mph - N/A   Clear
3:55 PM 97.9 °F 97.8 °F 59.2 °F 28% 29.98 in 10.0 mi ESE 4.6 mph - N/A   Clear
4:15 PM 97.0 °F 96.5 °F 58.5 °F 28% 29.97 in 10.0 mi NE 8.1 mph - N/A   Clear
4:35 PM 97.9 °F 97.0 °F 57.9 °F 26% 29.97 in 10.0 mi East 5.8 mph - N/A   Clear
4:55 PM 97.7 °F 96.7 °F 57.6 °F 26% 29.96 in 10.0 mi ENE 8.1 mph - N/A   Clear
5:15 PM 97.5 °F 96.9 °F 57.9 °F 27% 29.96 in 10.0 mi East 3.5 mph - N/A   Clear
5:35 PM 96.6 °F 96.0 °F 58.5 °F 28% 29.96 in 10.0 mi East 5.8 mph - N/A   Clear
5:55 PM 96.1 °F 95.2 °F 58.1 °F 28% 29.96 in 10.0 mi Calm Calm - N/A   Clear
6:15 PM 91.9 °F 94.1 °F 65.3 °F 41% 29.97 in 10.0 mi NNE 16.1 mph 25.3 mph N/A   Scattered Clouds
6:35 PM 87.3 °F 90.2 °F 67.1 °F 51% 29.97 in 10.0 mi NNE 15.0 mph 21.9 mph N/A   Clear
6:55 PM 87.6 °F 90.1 °F 66.4 °F 49% 29.97 in 10.0 mi NE 12.7 mph 18.4 mph N/A   Clear
7:15 PM 86.9 °F 89.6 °F 66.6 °F 51% 29.98 in 10.0 mi NE 10.4 mph - N/A   Clear
7:35 PM 86.0 °F 88.2 °F 66.2 °F 51% 29.98 in 10.0 mi ENE 10.4 mph - N/A   Clear
7:55 PM 85.3 °F 87.1 °F 65.5 °F 51% 29.99 in 10.0 mi NE 5.8 mph - N/A   Clear
8:15 PM 85.1 °F 87.1 °F 65.5 °F 52% 30.00 in 10.0 mi East 4.6 mph - N/A   Clear
8:35 PM 85.5 °F 87.4 °F 65.5 °F 51% 30.01 in 10.0 mi East 5.8 mph - N/A   Clear
8:55 PM 84.9 °F 87.1 °F 65.8 °F 53% 30.01 in 10.0 mi East 4.6 mph - N/A   Clear
9:15 PM 84.2 °F 86.3 °F 66.0 °F 54% 30.01 in 10.0 mi East 3.5 mph - N/A   Clear
9:35 PM 82.9 °F 85.2 °F 66.2 °F 57% 30.02 in 10.0 mi East 4.6 mph - N/A   Clear
9:55 PM 82.9 °F 85.2 °F 66.4 °F 57% 30.02 in 10.0 mi East 5.8 mph - N/A   Clear
10:15 PM 81.3 °F 83.5 °F 66.4 °F 60% 30.02 in 10.0 mi ENE 4.6 mph - N/A   Clear
10:35 PM 80.6 °F 82.9 °F 66.7 °F 63% 30.02 in 10.0 mi ENE 4.6 mph - N/A   Clear
10:55 PM 81.3 °F 83.8 °F 67.1 °F 62% 30.02 in 10.0 mi NE 5.8 mph - N/A   Clear
11:15 PM 79.0 °F - 67.1 °F 67% 30.02 in 10.0 mi NNE 4.6 mph - N/A   Clear
11:35 PM 79.3 °F - 67.6 °F 67% 30.02 in 10.0 mi NNE 5.8 mph - N/A   Clear
11:55 PM 79.7 °F - 68.0 °F 67% 30.02 in 10.0 mi NNE 5.8 mph - N/A   Clear